Regional Weather Roundup
Issued by NWS Wakefield, VA

Home | Current Version | Previous Version | Text Only | Print | Product List | Glossary Off
Versions: 1 2 3 4 5 6 7 8 9 10 11 12 13 14 15 16 17 18 19 20 21 22 23 24 25 26 27 28 29 30 31 32 33 34 35 36 37 38 39 40 41 42 43 44 45 46 47 48 49 50
165 ASUS41 KAKQ 102016 RWRAKQ REGIONAL WEATHER ROUNDUP NATIONAL WEATHER SERVICE WAKEFIELD VA 300 PM EST TUE DEC 10 2019 Note: "fair" indicates few or no clouds below 12,000 feet with no significant weather and/or obstructions to visibility. * = Denotes station may not report precipitation (e.g., rain,snow,etc.), thunder or fog. VAZ042-051-052>054-056-102100- NORTHERN VIRGINIA CITY SKY/WX TMP DP RH WIND PRES REMARKS WASH NATIONAL CLOUDY 58 55 90 N13 29.89R DULLES LGT RAIN 55 52 89 CALM 29.91R FOG FORT BELVOIR CLOUDY 59 55 88 NW6 29.90R QUANTICO CLOUDY 56 54 93 CALM 29.90R FREDERICKSBRG* CLOUDY 61 59 94 SW9 29.88R STAFFORD* CLOUDY 61 61 100 CALM 29.93R WARRENTON RAIN 58 54 85 W3 29.90R CULPEPER* DRIZZLE 58 55 89 NW3 29.92R MANASSAS* CLOUDY 56 54 93 N9 29.90R FOG LEESBURG* CLOUDY 50 50 100 W3 29.93R WINCHESTER RAIN 52 43 71 W7 29.90R FRONT ROYAL* CLOUDY 55 46 71 W7 29.91R LURAY* DRIZZLE 55 50 82 W6 29.92R $$ VAZ048-049-060>072-079>083-102100- CENTRAL AND SOUTH CENTRAL VIRGINIA CITY SKY/WX TMP DP RH WIND PRES REMARKS RICHMOND LGT RAIN 60 58 92 W6 29.90R CHESTERFIELD* LGT RAIN 59 58 96 SW6 29.91R PETERSBURG* CLOUDY 60 57 89 W6 29.92R HANOVER CLOUDY 60 56 86 SW7 29.91R TAPPAHANNOCK* RAIN 60 60 100 SW3 29.90R QUINTON* CLOUDY 60 60 100 SW3 29.90R CHARLOTTSVILLE CLOUDY 59 53 80 CALM 29.91R GORDONSVILLE* CLOUDY 58 57 97 SW3 29.90R ORANGE* CLOUDY 57 54 88 SW8 29.90R LOUISA* CLOUDY 59 55 88 W6 29.93R BUMPASS* CLOUDY 58 57 96 W6 29.89R FARMVILLE* CLOUDY 58 56 90 SW5 29.91S CREWE* CLOUDY N/A N/A N/A CALM 29.92R FORT PICKETT* CLOUDY 58 58 100 W7 29.92R CHASE CITY* CLOUDY 57 57 97 CALM 29.93R CLARKSVILLE* CLOUDY 57 57 100 W5 29.93S SOUTH HILL* CLOUDY 59 57 93 W8 29.98R LAWRENCEVILLE* CLOUDY 61 60 97 W6 29.93R EMPORIA* N/A 70 60 70 MISG N/A $$ VAZ088>098-102100- SOUTHEAST VIRGINIA CITY SKY/WX TMP DP RH WIND PRES REMARKS NORFOLK FAIR 76 61 59 SW17 29.88S VIRGINIA BEACH CLOUDY 75 61 61 SW15G21 29.88F NORFOLK NAVAL FAIR 74 61 63 SW16G22 29.90S WEST POINT* CLOUDY 61 60 97 W7 29.91R SALUDA* CLOUDY 61 61 100 W7 29.90R NEWPORT NEWS PTSUNNY 72 59 63 SW14 29.89R LANGLEY AFB CLOUDY 72 62 71 SW17 29.89S FORT EUSTIS PTSUNNY 69 57 65 SW8 29.87R WILLIAMSBURG* FAIR 72 61 68 SW7G17 29.89S HR EXEC AP* FAIR 74 62 66 SW14 29.90S FRANKLIN* FAIR 73 62 68 SW8 29.90S US460-WAKEFLD CLOUDY 70 60 70 VRB6 29.88F $$ VAZ020-022-025-037-045-102100- WEST CENTRAL AND SOUTHWEST VIRGINIA CITY SKY/WX TMP DP RH WIND PRES REMARKS STAUNTON* CLOUDY 52 43 72 W7 29.95R WAYNESBORO* CLOUDY 53 44 71 W9G20 29.94S HOT SPRINGS VA LGT RAIN 39 39 100 W18G30 29.93S LYNCHBURG LGT RAIN 57 53 86 W7 29.94R DANVILLE CLOUDY 57 56 96 SW7 29.95R SOUTH BOSTON* CLOUDY 58 56 95 CALM 29.94R MARTINSVILLE CLOUDY 55 55 100 N7 29.98R ROANOKE LGT RAIN 53 44 71 NW9G21 29.98R BLACKSBURG RAIN 47 46 97 W7 30.01S DUBLIN* NOT AVBL MARION* CLOUDY 45 42 89 W22G29 30.05R HILLSVILLE* RAIN 44 43 96 W8 30.00R RICHLANDS* RAIN 38 38 98 NW8G16 30.08R WISE* MIX PCPN 36 36 100 NW8 30.11R ABINGDON* RAIN 44 41 90 NW5 30.09R $$ MDZ021>025-VAZ099-100-102100- SOUTHERN MARYLAND AND THE DELMARVA PENINSULA CITY SKY/WX TMP DP RH WIND PRES REMARKS PATUXENT RIVER CLOUDY 61 58 90 W9 29.87R BAY BRIDGE APT CLOUDY 57 N/A N/A W5 29.87R FOG LEONARDTOWN N/A 59 55 88 W7 29.89R DOVER LGT RAIN 61 59 94 W6 29.86R GEORGETOWN CLOUDY 63 60 90 W9 29.87R EASTON DRIZZLE 61 59 94 SW6 29.91R CAMBRIDGE CLOUDY 61 59 94 CALM 29.88R SALISBURY CLOUDY 63 59 87 SW10 29.88R TANGIER NOT AVBL OCEAN CITY CLOUDY 61 57 87 S6 29.87S WALLOPS ISLAND CLOUDY 60 55 83 S8 29.88R ACCOMACK* NOT AVBL $$ NCZ012>017-030>032-102100- NORTH CENTRAL AND EASTERN NORTH CAROLINA CITY SKY/WX TMP DP RH WIND PRES REMARKS ROANOKE RAPIDS MOCLDY 72 64 78 SW12 29.90S RALEIGH CLOUDY 75 62 64 SW14G25 29.90F ELIZABETH CITY FAIR 76 62 62 S17G23 29.93S AHOSKIE* FAIR 73 62 68 S10 29.91F EDENTON* PTSUNNY 76 65 70 SW13 29.95S CURRITUCK* FAIR 74 64 69 SW9G22 29.92S KILL DEVIL HLS FAIR 69 58 67 MISG 29.95S MANTEO FAIR 67 57 71 SW14 29.97S CAPE HATTERAS FAIR 71 66 84 SW9 30.01S HAZE TARBORO* FAIR 74 62 66 SW9G18 29.92F GOLDSBORO NOT AVBL WASHINGTON FAIR 76 61 59 SW20 29.95F GREENVILLE FAIR 77 63 61 SW15G22 29.97S NEW BERN FAIR 75 61 61 SW17G26 29.98F WILMINGTON FAIR 74 62 66 S12G23 30.00S $$ VAZ048-102100- ELSEWHERE CITY SKY/WX TMP DP RH WIND PRES REMARKS HARRISBURG PA CLOUDY 52 49 89 CALM 29.85R BALTIMORE CLOUDY 57 54 89 W6 29.87R ANNAPOLIS LGT RAIN 59 56 89 W5 29.88R FOG ANDREWS AFB CLOUDY 58 57 96 NW6 29.87R PHILADELPHIA LGT RAIN 56 53 90 SW12 29.86R FOG HENDERSON NC RAIN 57 57 97 NW9 29.93R GREENSBORO RAIN 57 56 96 W8 29.95R FOG ROCKY MOUNT FAIR 74 63 68 S14G20 29.92F $$ VAZ100-102100- MARINE STATION/POSITION TIME TEMP WIND PRES WAVE SWELL AIR SEA DIR/SP/G HT/PER HT/PER (UTC) (F) (DEG/KT/KT) (MB) (FT/S) (FT/S) CAPE MAY NJ 1924 55 47 260/ 12/ 15 1011.0 LEWES DE 1924 65 47 260/ 11/ 15 1011.2 15NM E FENWICK I 1950 54 52 200/ 12/ 14 1009.2R 6/10 5/10 OCEAN-CITY-INLET 1930 53 50 210/ 9/ 11 1012.2R 44089 WALLOPS IS 1930 52 N/A 5/ 9 2/11 WACHAPREAGUE VA 1930 65 53 200/ 8/ 12 1011.7R THOMAS POINT MD 2000 55 46 240/ 4/ 5 1012.5R GOOSES REEF MD 1948 53 270/ 4/ 6 1012.1R SOLOMONS ISLAND 1924 60 48 260/ 9/ 15 1011.0 BISHOPS HEAD MD 1930 53 48 200/ 7/ 8 1011.7F PINEY POINT MD 1930 260/ 10/ 13 N/A POTOMAC MD 1954 53 48 N/A CAMBRIDGE MD 1930 60 45 230/ 4/ 9 1011.1R LEWISETTA VA 1930 60 47 270/ 11/ 14 1011.5F RAPPAHANNOCK LGT 1930 190/ 10/ 12 1012.6S STINGRAY PT 1930 48 250/ 10/ 12 1014.5F YORK RVR RNG VA 1930 67 230/ 14/ 16 1012.3R YORKTOWN VA 1930 70 50 230/ 11/ 14 1011.2R DOMINION TERM VA 1930 64 230/ 11/ 14 1012.2F KIPTOPEKE VA 1930 51 210/ 8/ 10 N/A CAPE HENRY VA 1930 74 210/ 11/ 15 1012.3S WILLOUBY STN VA 1930 70 210/ 19/ 23 1011.1F S CRANEY ISL VA 1930 71 210/ 11/ 15 1011.7F CAPE HENRY BUOY 2000 51 N/A 5/ 9 1ST LANDING BUOY 1950 65 230/ 14/ 19 1011.7F 64NM E OF VA BCH 1950 62 58 200/ 21/ 23 1014.4F 8/ 8 5/ 8 DUCK PIER NC 1930 70 190/ 15/ 22 1013.4F 44100 DUCK FRF 2000 54 N/A 5/ 8 44056 DUCK FRF 2000 55 N/A 3/ 9 OREGON INLET NC 1930 60 57 200/ 17/ 19 1015.1F HATTERAS NC 1930 69 220/ 11/ 16 1016.2F DIAMOND SHLS NC 1950 74 73 220/ 19/ 25 1016.1S 8/ 8 5/ 8 CAPE LOOKOUT NC 2000 68 210/ 11/ 15 1016.6F $$

USA.gov is the U.S. government's official web portal to all federal, state and local government web resources and services.